Regional Weather Roundup
Issued by NWS

Home | Current Version | Previous Version | Graphics & Text | Print | Product List | Glossary Off
Versions: 1 2 3 4 5 6 7 8 9 10 11 12 13 14 15 16 17 18 19 20 21 22 23 24 25 26 27 28 29 30 31 32 33 34 35 36 37 38 39 40 41 42 43 44 45 46 47 48 49 50

000
ASUS43 KMKX 241611
RWRWI

WISCONSIN REGIONAL WEATHER ROUNDUP
NATIONAL WEATHER SERVICE MILWAUKEE/SULLIVAN WI
1100 AM CDT SAT SEP 24 2016

NOTE: "FAIR" INDICATES FEW OR NO CLOUDS BELOW 12,000 FEET WITH NO
SIGNIFICANT WEATHER AND/OR OBSTRUCTIONS TO VISIBILITY.

WIZ001-002-006>008-014>016-023>028-241700-
NORTHWEST WISCONSIN

CITY           SKY/WX    TMP DP  RH WIND       PRES   REMARKS
SUPERIOR ARPT  CLOUDY    58  56  95 NE7       30.16S
ASHLAND        MOSUNNY   65  57  75 S8        30.18F
HAYWARD        CLOUDY    60  56  86 SE10      30.18S
SIREN          CLOUDY    62  58  87 SE9       30.14S
CUMBERLAND     CLOUDY    59  55  88 SE12      30.16F FOG
RICE LAKE      CLOUDY    61  58  91 SE16      30.18F FOG
CHETEK         NOT AVBL
LADYSMITH      CLOUDY    62  57  83 SE10      30.21F
EAU CLAIRE     CLOUDY    64  59  83 SE9       30.17S
MENOMONIE      CLOUDY    65  60  82 SE13      30.16F
NEW RICHMOND   CLOUDY    63  61  91 SE8G16    30.13F
OSCEOLA        CLOUDY    64  64 100 SE13G18   30.15S
$$

WIZ003>005-009-010-017-018-241700-
NORTH CENTRAL WISCONSIN

CITY           SKY/WX    TMP DP  RH WIND       PRES   REMARKS
MANITOWISH WTR NOT AVBL
ARBOR VITAE    PTSUNNY   62  55  77 S12       30.23F
WOODRUFF       PTSUNNY   62  55  77 S12       30.23F
RHINELANDER    CLOUDY    62  56  80 S12       30.25F
EAGLE RIVER    CLOUDY    60  52  72 S5        30.25S
LAND O LAKES   CLOUDY    60  53  77 SE9       30.27S
PHILLIPS       CLOUDY    59  56  89 SE9G17    30.22F
TOMAHAWK       CLOUDY    60  55  81 SE6       30.24F
MEDFORD        CLOUDY    60  60 100 SE10      30.22S
MERRILL        CLOUDY    61  56  85 SE9       30.25S
$$

WIZ029-030-035-036-043>047-241700-
CENTRAL WISCONSIN

CITY           SKY/WX    TMP DP  RH WIND       PRES   REMARKS
WAUSAU         CLOUDY    62  55  77 SE13      30.23F
MOSINEE        CLOUDY    61  57  88 SE9       30.25S
MARSHFIELD     CLOUDY    63  56  78 SE9       30.22S
STEVENS POINT  CLOUDY    62  56  81 E8G17     30.24F
WAUPACA        CLOUDY    66  57  74 E9        30.25F
WAUTOMA        CLOUDY    65  57  75 E9        30.24F
WISC RAPIDS    CLOUDY    63  58  83 SE8       30.24S
CAMP DOUGLAS   CLOUDY    61  59  94 E8        30.21S
$$

WIZ011>013-019>022-031-037>040-048>050-241700-
NORTHEAST WISCONSIN

CITY           SKY/WX    TMP DP  RH WIND       PRES   REMARKS
ANTIGO         CLOUDY    60  54  80 SE16      30.27S
SHAWANO        CLOUDY    67  54  63 E9        30.27S
OCONTO         NOT AVBL
STURGEON BAY   PTSUNNY   64  51  62 SE12      30.29F
GREEN BAY      MOSUNNY   65  56  72 E8        30.26F
MANITOWOC      SUNNY     64  54  69 SE15      30.27F
APPLETON       PTSUNNY   63  52  67 E10       30.24S
CLINTONVILLE   NOT AVBL
OSHKOSH        CLOUDY    64  55  72 SE9       30.25R
$$

WIZ032>034-041-042-053>061-241700-
SOUTHWEST WISCONSIN

CITY           SKY/WX    TMP DP  RH WIND       PRES   REMARKS
LA CROSSE      CLOUDY    68  62  81 E8        30.16S
SPARTA         CLOUDY    64  60  87 E10       30.20R
VIROQUA        CLOUDY    64  61  90 SE8       30.19S
BOSCOBEL       CLOUDY    69  62  78 E6        30.17F
PRAIRIE DU CHI CLOUDY    66  62  85 E8        30.15S
PLATTEVILLE    CLOUDY    67  65  94 E8        30.18F
$$

WIZ056-057-062-063-064-067-068-241700-
SOUTH CENTRAL WISCONSIN

CITY           SKY/WX    TMP DP  RH WIND       PRES   REMARKS
REEDSBURG      NOT AVBL
BARABOO/DELLS  CLOUDY    61  59  94 E6        30.22S
LONE ROCK      CLOUDY    66  61  84 E10       30.19F
MINERAL POINT  CLOUDY    68  63  83 E8        30.19S
MADISON        CLOUDY    65  60  84 SE9       30.21S
MIDDLETON      CLOUDY    64  62  93 E12       30.22R
WATERTOWN      CLOUDY    64  60  87 E6        30.23R
MONROE         CLOUDY    64  61  88 E8        30.20S
JANESVILLE     CLOUDY    68  63  83 E10       30.20S
$$

WIZ051-052-058>065-066-070>072-241700-
SOUTHEAST WISCONSIN

CITY           SKY/WX    TMP DP  RH WIND       PRES   REMARKS
MILWAUKEE      PTSUNNY   67  60  78 E10       30.24S
WAUKESHA       PTSUNNY   63  55  77 E12       30.24S
MILWAUKEE/TIMM PTSUNNY   64  55  72 E8        30.25R
RACINE         CLOUDY    66  59  78 E8        30.25R
BURLINGTON     CLOUDY    65  57  77 E10       30.22S
KENOSHA        CLOUDY    66  59  78 E12       30.22S
FOND DU LAC    CLOUDY    64  56  75 E10       30.25R
SHEBOYGAN      CLOUDY    64  55  72 SE12      30.26S
WEST BEND      CLOUDY    63  55  77 SE8       30.25R
JUNEAU         CLOUDY    64  56  75 E13       30.24S
$$

LSZ147-162-241700-
LAKE SUPERIOR

STATION/POSITION TIME  TEMP    WIND        PRES    WAVE
                       AIR SEA DIR/SP/G            HT/PER
                 (UTC) (F)     (DEG/KT/KT) (MB)    (FT/S)
W MID LAKE BUOY  1550   60 60  140/ 14/ 16 1022.7F   2/ 4
DEVILS ISLAND    1600   61     110/  9/ 10 1022.5F
SAXON HARBOR     1540   66     180/  6/ 13 1021.7F
$$

LMZ867-665-643>646-241700-
LAKE MICHIGAN

STATION/POSITION TIME  TEMP    WIND        PRES    WAVE
                       AIR SEA DIR/SP/G            HT/PER
                 (UTC) (F)     (DEG/KT/KT) (MB)    (FT/S)
CHAMBERS ISLAND  1500   62      90/  8/ 10 1025.4F
S GREEN BAY BUOY 1500   62 66  120/ 12/ 14 1024.8F
N MID LAKE BUOY  1550   60 68  140/ 12/ 16 1025.5F   2/ 3
NORTHPORT PIER   1500   61     130/ 11/ 15 1025.7F
SISTER BAY       1538   67     130/ 12/ 17   N/A
KEWAUNEE LAKESHO 1500   62     120/ 10/ 13 1024.9R
SHEBOYGAN LAKESH 1600   62     100/ 12/ 14 1024.5R
PORT WASHINGTON  1500   62      80/  4/  5 1024.7F
ATWATER BUOY     1600   63 62  120/  8/ 10 1023.8R
MILWAUKEE LAKESH 1510   63     100/  5/  5   N/A
S MID LAKE BUOY  1550   65 72  110/ 14/ 16 1022.7S   3/ 5
KENOSHA   LAKESH 1600   65      90/ 10/ 11 1023.0S
$$

TC  - TEMPERATURE IN CELSIUS
VSB - VISIBILITY IN STATUTE MILES
WCI - WIND CHILL INDEX
HX  - HEAT INDEX




USA.gov is the U.S. government's official web portal to all federal, state and local government web resources and services.